Powrót do katalogu

STARLINK-37649

AktywnyŁącznośćVLEO
NORAD 69202·PAYLOAD·🇺🇸 United States

Wystrzelony May 25, 2026 z Cape Canaveral Space Force Station

Loading…

Następne Przeloty (najbliższe 24 godziny)

TLE

ŚwieżeSource: CelesTrak SupGP

Epoka: Sep 15, 2026, 03:25 UTC

1 69202C 26114W   26258.14284722  .00048207  00000+0  14244-2 0  2581
2 69202  53.1572 138.6275 0001228  83.2871 341.6128 15.34365319    14

Śledź STARLINK-37649 w czasie rzeczywistym z AllMySat

Download on the App Store